Location: Windsor
(43.2292°N, 89.3015°W)
Time: 09:34:03
(UTC+00:00)

BEESAT - Pass Details

Date: 08 July 2022
Orbit: 700 x 706 km, 98.6° (Epoch: 13 August)

Event Time Altitude Azimuth Distance (km) Brightness Sun altitude
Rises 03:53:11 0° 356° (N) 3,107 ? -17.9°
Reaches altitude 10° 03:56:18 10° 334° (NNW) 2,184 ? -18.2°
Maximum altitude 03:59:00 15° 300° (WNW) 1,846 ? -18.4°
Drops below altitude 10° 04:01:42 10° 265° (W) 2,177 ? -18.7°
Sets 04:04:49 0° 243° (WSW) 3,092 ? -19.0°
